• In Lithuania
  • List of Countries
  • For 7 days
  • Water Temperature
  • Satellite Maps
  • Weather Map
  • Weather Widgets
  • user-avatar
    Login

    Hourly Weather Kaczowice

    Today, 25 September, Tuesday

    Time Temperature Precipitation Wind Pressure Humidity
    00:00 +3°C° 0 mm 5 mps 745 mmHg 80%
    01:00 +3°C° 0 mm 3 mps 746 mmHg 86%
    02:00 +3°C° 0 mm 3 mps 746 mmHg 86%
    03:00 +3°C° 0 mm 4 mps 746 mmHg 86%
    04:00 +3°C° 0 mm 4 mps 747 mmHg 86%
    05:00 +2°C° 0 mm 5 mps 747 mmHg 85%
    06:00 +3°C° 0 mm 5 mps 748 mmHg 83%
    07:00 +3°C° 0 mm 5 mps 749 mmHg 80%
    08:00 +5°C° 0 mm 5 mps 749 mmHg 74%
    09:00 +7°C° 0 mm 5 mps 749 mmHg 68%
    10:00 +8°C° 0 mm 6 mps 750 mmHg 62%
    11:00 +9°C° 0.1 mm 5 mps 750 mmHg 59%
    12:00 +10°C° 0.1 mm 5 mps 750 mmHg 55%
    13:00 +10°C° 0.1 mm 5 mps 750 mmHg 51%
    14:00 +10°C° 0 mm 5 mps 750 mmHg 51%
    15:00 +10°C° 0 mm 5 mps 750 mmHg 52%
    16:00 +11°C° 0 mm 4 mps 750 mmHg 52%
    17:00 +10°C° 0 mm 4 mps 751 mmHg 58%
    18:00 +8°C° 0 mm 3 mps 751 mmHg 65%
    19:00 +7°C° 0 mm 2 mps 751 mmHg 71%
    20:00 +6°C° 0 mm 2 mps 752 mmHg 72%
    21:00 +6°C° 0 mm 2 mps 752 mmHg 73%
    22:00 +5°C° 0 mm 2 mps 753 mmHg 74%
    23:00 +5°C° 0 mm 2 mps 753 mmHg 75%

    Tomorrow, 26 September, Wednesday

    Time Temperature Precipitation Wind Pressure Humidity
    00:00 +5°C° 0 mm 2 mps 753 mmHg 75%
    01:00 +5°C° 0 mm 2 mps 753 mmHg 75%
    02:00 +4°C° 0 mm 2 mps 753 mmHg 76%
    03:00 +4°C° 0 mm 2 mps 752 mmHg 76%
    04:00 +4°C° 0 mm 2 mps 752 mmHg 76%
    05:00 +4°C° 0 mm 2 mps 752 mmHg 75%
    06:00 +5°C° 0 mm 2 mps 752 mmHg 74%
    07:00 +5°C° 0 mm 2 mps 752 mmHg 72%
    08:00 +7°C° 0 mm 2 mps 752 mmHg 64%
    09:00 +9°C° 0 mm 3 mps 752 mmHg 57%
    10:00 +12°C° 0 mm 3 mps 752 mmHg 49%
    11:00 +13°C° 0 mm 4 mps 751 mmHg 46%
    12:00 +14°C° 0 mm 4 mps 751 mmHg 43%
    13:00 +15°C° 0 mm 5 mps 750 mmHg 40%
    14:00 +14°C° 0 mm 4 mps 750 mmHg 42%
    15:00 +14°C° 0 mm 4 mps 749 mmHg 44%
    16:00 +14°C° 0 mm 4 mps 749 mmHg 45%
    17:00 +13°C° 0 mm 4 mps 748 mmHg 48%
    18:00 +12°C° 0 mm 4 mps 748 mmHg 52%
    19:00 +10°C° 0 mm 4 mps 748 mmHg 55%
    20:00 +10°C° 0 mm 4 mps 748 mmHg 55%
    21:00 +10°C° 0 mm 4 mps 748 mmHg 55%
    22:00 +10°C° 0 mm 4 mps 748 mmHg 55%
    23:00 +8°C° 0 mm 4 mps 748 mmHg 55%

    Day after tomorrow, 27 September, Thursday

    Time Temperature Precipitation Wind Pressure Humidity
    00:00 +8°C° 0 mm 4 mps 748 mmHg 55%
    01:00 +8°C° 0 mm 4 mps 748 mmHg 56%
    02:00 +9°C° 0 mm 3 mps 747 mmHg 56%
    03:00 +9°C° 0 mm 3 mps 747 mmHg 56%
    04:00 +9°C° 0 mm 3 mps 747 mmHg 56%
    05:00 +10°C° 0 mm 3 mps 747 mmHg 56%
    06:00 +10°C° 0 mm 3 mps 747 mmHg 57%
    07:00 +10°C° 0 mm 3 mps 747 mmHg 57%
    08:00 +12°C° 0 mm 3 mps 747 mmHg 54%
    09:00 +15°C° 0 mm 4 mps 747 mmHg 52%
    10:00 +18°C° 0 mm 4 mps 747 mmHg 49%
    11:00 +19°C° 0 mm 4 mps 747 mmHg 50%
    12:00 +20°C° 0 mm 4 mps 747 mmHg 51%
    13:00 +21°C° 0 mm 4 mps 746 mmHg 51%
    14:00 +21°C° 0 mm 4 mps 746 mmHg 53%
    15:00 +21°C° 0 mm 3 mps 745 mmHg 54%
    16:00 +21°C° 0 mm 3 mps 745 mmHg 56%
    17:00 +19°C° 0 mm 3 mps 745 mmHg 60%
    18:00 +17°C° 0 mm 2 mps 745 mmHg 64%
    19:00 +15°C° 0 mm 2 mps 744 mmHg 68%
    20:00 +15°C° 0 mm 2 mps 744 mmHg 67%
    21:00 +15°C° 0 mm 2 mps 744 mmHg 66%
    22:00 +14°C° 0 mm 2 mps 743 mmHg 64%
    23:00 +13°C° 0 mm 3 mps 743 mmHg 64%

    28 September, Friday

    Time Temperature Precipitation Wind Pressure Humidity
    00:00 +13°C° 0 mm 3 mps 742 mmHg 64%
    01:00 +13°C° 0 mm 3 mps 742 mmHg 64%
    02:00 +12°C° 0 mm 3 mps 741 mmHg 63%
    03:00 +12°C° 0 mm 3 mps 741 mmHg 63%
    04:00 +12°C° 0 mm 3 mps 740 mmHg 62%
    05:00 +12°C° 0 mm 3 mps 740 mmHg 62%
    06:00 +12°C° 0 mm 3 mps 740 mmHg 62%
    07:00 +12°C° 0 mm 3 mps 740 mmHg 62%
    08:00 +13°C° 0 mm 3 mps 740 mmHg 57%
    09:00 +16°C° 0 mm 3 mps 740 mmHg 52%
    10:00 +18°C° 0 mm 4 mps 740 mmHg 48%
    11:00 +19°C° 0 mm 4 mps 740 mmHg 47%
    12:00 +19°C° 0 mm 4 mps 739 mmHg 46%
    13:00 +20°C° 0 mm 4 mps 739 mmHg 45%
    14:00 +19°C° 0 mm 4 mps 739 mmHg 49%
    15:00 +18°C° 0 mm 4 mps 739 mmHg 53%
    16:00 +18°C° 0 mm 4 mps 739 mmHg 56%
    17:00 +15°C° 0 mm 4 mps 739 mmHg 64%
    18:00 +13°C° 0 mm 3 mps 740 mmHg 72%
    19:00 +12°C° 0 mm 3 mps 740 mmHg 80%
    20:00 +11°C° 0 mm 3 mps 740 mmHg 80%
    21:00 +11°C° 0 mm 3 mps 741 mmHg 79%
    22:00 +10°C° 0 mm 2 mps 741 mmHg 79%
    23:00 +10°C° 0 mm 2 mps 741 mmHg 80%

    29 September, Saturday

    Time Temperature Precipitation Wind Pressure Humidity
    00:00 +9°C° 0 mm 2 mps 741 mmHg 80%
    01:00 +8°C° 0 mm 2 mps 741 mmHg 81%
    02:00 +8°C° 0 mm 2 mps 742 mmHg 83%
    03:00 +7°C° 0 mm 2 mps 742 mmHg 85%
    04:00 +7°C° 0 mm 2 mps 742 mmHg 87%
    05:00 +7°C° 0 mm 3 mps 743 mmHg 87%
    06:00 +7°C° 0 mm 3 mps 743 mmHg 87%
    07:00 +7°C° 0 mm 3 mps 744 mmHg 87%
    08:00 +8°C° 0 mm 3 mps 744 mmHg 77%
    09:00 +10°C° 0 mm 4 mps 744 mmHg 68%
    10:00 +11°C° 0 mm 4 mps 745 mmHg 58%
    11:00 +12°C° 0 mm 4 mps 745 mmHg 54%
    12:00 +12°C° 0 mm 4 mps 745 mmHg 50%
    13:00 +13°C° 0 mm 4 mps 744 mmHg 46%
    14:00 +13°C° 0 mm 4 mps 744 mmHg 47%
    15:00 +13°C° 0 mm 4 mps 744 mmHg 48%
    16:00 +12°C° 0 mm 4 mps 744 mmHg 49%
    17:00 +11°C° 0 mm 3 mps 745 mmHg 54%
    18:00 +9°C° 0 mm 2 mps 745 mmHg 59%
    19:00 +8°C° 0 mm 2 mps 745 mmHg 64%
    20:00 +7°C° 0 mm 2 mps 745 mmHg 65%
    21:00 +7°C° 0 mm 2 mps 745 mmHg 67%
    22:00 +6°C° 0 mm 2 mps 745 mmHg 68%
    23:00 +7°C° 0 mm 1 mps 745 mmHg 69%

    30 September, Sunday

    Time Temperature Precipitation Wind Pressure Humidity
    00:00 +7°C° 0 mm 1 mps 745 mmHg 71%
    01:00 +6°C° 0 mm 1 mps 745 mmHg 72%
    02:00 +6°C° 0 mm 1 mps 745 mmHg 74%
    03:00 +6°C° 0 mm 1 mps 744 mmHg 76%
    04:00 +5°C° 0 mm 1 mps 744 mmHg 78%
    05:00 +5°C° 0 mm 2 mps 744 mmHg 78%
    06:00 +5°C° 0 mm 2 mps 744 mmHg 77%
    07:00 +5°C° 0 mm 2 mps 744 mmHg 77%
    08:00 +7°C° 0 mm 2 mps 743 mmHg 69%
    09:00 +9°C° 0 mm 3 mps 743 mmHg 61%
    10:00 +11°C° 0 mm 3 mps 743 mmHg 53%
    11:00 +12°C° 0 mm 3 mps 742 mmHg 50%
    12:00 +13°C° 0 mm 3 mps 742 mmHg 47%
    13:00 +14°C° 0 mm 3 mps 741 mmHg 44%
    14:00 +14°C° 0 mm 3 mps 741 mmHg 45%
    15:00 +14°C° 0 mm 3 mps 740 mmHg 46%
    16:00 +14°C° 0 mm 3 mps 740 mmHg 47%
    17:00 +13°C° 0 mm 2 mps 739 mmHg 52%
    18:00 +10°C° 0 mm 2 mps 739 mmHg 57%
    19:00 +10°C° 0 mm 1 mps 739 mmHg 63%
    20:00 +9°C° 0 mm 1 mps 739 mmHg 64%
    21:00 +9°C° 0 mm 1 mps 739 mmHg 65%
    22:00 +8°C° 0 mm 1 mps 738 mmHg 67%
    23:00 +8°C° 0 mm 1 mps 738 mmHg 67%
    Show more